Flight Briefing for CPX714

Departure Arrival
José María Córdova International Airport (SKRG)
Click to view FAA NOTAMS
Miami International Airport (KMIA)
Click to view FAA NOTAMS
Departure Time Arrival Time
1430 UTC 1800 UTC
Aircraft Distance
B767-300BDSF 1271nm
Departure METAR Arrival METAR
SKRG 212300Z VRB02KT 9999 SCT020 SCT200 19/15 A3022 NOSIG KMIA 212253Z 12012KT 10SM FEW040 FEW060 FEW250 29/20 A2993 RMK AO2 SLP136 T02890200
Suggested Route
BUTAL UQ105 KILER UG430 UCA UA301 URSUS FLIPR5


View recent IFR Routes data
Notes



Charts and Procedures

Charts for SKRG
No chart available
Charts for KMIA
No chart available

Windy.com Weather Map